Wind_Speed
22 23 24 21 18 18 17 15 12 12 10 8 7 8 11 15 16 16 16 16 15 15 15 16 16 17 17 16 16 15 14 14 13 13 13 13 13 12 12 11 11 11
22 24 23 19 18 17 17 14 12 11 11 10 10 9 11 16 16 16 16 16 16 16 17 17 17 17 17 16 16 15 14 14 14 14 13 13 13 12 12 11 11 11
23 24 22 20 19 18 18 16 14 13 13 12 11 10 11 16 17 17 17 17 17 18 18 19 19 18 17 16 16 15 15 15 15 14 14 14 13 12 12 11 11 11
26 25 24 23 22 20 19 18 16 15 15 12 11 10 13 17 18 18 19 18 19 19 19 20 20 19 18 17 16 16 16 15 15 14 14 13 13 12 11 11 11 10
25 25 22 22 23 22 20 19 17 16 15 14 13 13 15 18 19 19 19 19 20 20 21 21 20 20 19 18 17 16 16 15 15 14 13 13 12 12 11 10 10 10
25 24 22 22 23 22 20 19 18 16 15 14 14 15 17 19 20 20 20 20 20 21 22 22 21 20 19 18 17 17 16 16 15 14 13 13 13 12 11 11 10 10
25 24 23 25 25 22 21 19 18 16 15 15 15 16 18 20 21 20 20 21 21 22 22 22 21 20 19 18 18 17 17 16 15 15 14 13 13 12 12 11 10 10
26 24 25 27 26 23 23 20 18 17 16 15 16 17 19 21 21 20 20 21 22 22 23 22 21 20 20 19 18 17 17 16 15 15 14 13 13 12 12 11 11 10
26 26 27 28 26 25 25 22 18 16 16 16 16 18 19 21 20 20 21 22 23 23 23 22 21 21 20 19 18 17 17 17 16 15 14 13 13 12 12 11 11 10
27 29 29 28 27 26 25 22 18 15 16 17 17 18 20 21 20 21 22 23 23 23 22 21 21 21 21 19 17 17 16 16 16 15 14 14 13 13 12 11 11 10
30 31 31 29 27 26 24 22 18 15 16 18 18 19 21 22 21 21 22 23 23 22 21 21 21 21 20 19 18 17 16 15 15 15 15 14 14 13 12 12 11 10
31 33 32 29 28 26 24 22 18 16 17 19 18 19 21 22 22 21 22 22 22 21 20 21 21 20 19 19 19 18 16 15 15 15 15 14 14 13 13 12 11 10
32 33 32 30 28 27 24 21 18 17 18 19 18 20 22 22 22 21 22 21 19 19 20 20 21 19 19 19 18 18 16 16 16 16 16 15 15 14 13 12 11 10
33 32 31 30 28 26 24 22 19 17 18 18 18 20 21 21 21 21 21 20 18 20 20 20 20 19 19 19 18 18 17 16 16 17 16 16 15 15 14 12 11 10
34 32 31 30 27 25 24 21 18 18 18 18 19 20 21 20 20 21 21 19 19 21 21 21 21 19 19 19 18 18 17 16 16 16 16 16 15 14 13 12 11 9
33 31 30 29 27 25 23 21 19 19 19 18 18 20 21 21 20 20 20 19 19 21 21 22 22 19 20 21 19 18 17 16 16 16 15 15 15 14 13 11 10 9
32 30 30 29 27 26 23 21 20 19 19 19 19 20 22 23 22 21 20 20 20 21 22 22 22 21 22 24 21 19 17 16 16 16 14 14 14 14 13 11 10 8
31 30 30 28 27 27 24 24 24 21 20 20 21 23 24 24 23 22 21 20 20 21 22 22 22 23 24 24 22 21 19 16 15 15 14 14 14 13 12 11 10 8
31 29 28 28 28 28 25 26 26 23 22 22 22 23 24 23 22 21 21 21 20 20 21 23 24 25 24 23 22 21 21 18 14 13 14 13 12 12 11 10 10 8
29 27 27 29 29 28 26 26 25 21 22 23 23 24 24 24 24 22 21 22 22 21 21 22 25 25 23 23 22 21 22 19 14 12 13 12 12 13 12 11 11 8
28 29 31 31 29 27 25 23 22 21 22 23 24 25 24 24 26 25 24 23 23 21 20 21 24 24 22 23 22 21 21 20 15 13 13 12 13 15 15 15 14 11
29 29 31 30 27 25 23 22 22 23 24 23 24 25 24 23 25 27 26 25 23 22 20 20 24 24 22 23 23 21 23 22 16 13 13 12 13 15 15 14 14 13
28 27 28 28 25 24 22 22 24 25 26 25 25 26 26 24 24 25 26 26 24 22 18 18 23 24 22 23 23 22 24 23 15 11 13 12 12 15 14 13 14 13
25 25 27 27 25 24 23 23 27 27 25 23 22 25 28 28 26 24 24 24 23 22 19 18 23 25 22 23 24 23 25 24 15 11 13 12 12 15 13 12 15 15
25 26 27 26 24 24 25 26 28 26 23 22 22 25 29 31 29 26 24 21 21 22 23 21 21 23 23 24 25 24 25 23 15 10 13 13 12 14 13 11 14 15
27 28 29 27 25 26 26 26 27 27 26 26 26 27 31 33 33 29 27 25 22 23 24 21 19 22 23 24 25 24 25 24 17 10 12 13 12 13 13 12 14 15
Wind_Direction
196 190 186 184 184 183 181 183 182 180 183 185 199 200 184 186 188 186 190 190 186 184 179 173 169 164 162 160 160 158 154 152 150 146 142 138 135 133 132 127 125 123
189 185 182 180 181 181 179 181 177 183 196 188 182 186 184 188 190 188 191 190 185 183 177 172 167 165 164 163 161 158 156 155 151 146 140 137 136 133 131 127 125 121
184 181 180 179 180 181 181 180 178 193 210 195 177 182 188 191 191 190 191 189 185 181 176 172 168 166 166 164 162 160 159 158 151 146 141 138 137 134 131 129 123 119
184 181 181 183 183 182 181 179 184 202 212 202 191 193 193 194 194 193 192 188 184 180 176 174 170 168 166 165 165 164 161 156 150 145 143 141 139 135 131 128 125 120
184 181 182 183 184 183 182 184 195 207 209 201 198 198 197 197 196 194 192 187 182 179 176 175 171 167 166 166 168 166 160 154 150 146 145 143 140 137 133 128 125 120
185 182 182 184 185 185 185 191 200 208 208 201 196 197 199 198 196 195 191 185 181 180 178 176 172 167 167 169 169 165 158 153 150 147 147 145 141 139 135 130 125 121
185 182 184 187 187 188 190 195 200 205 207 201 197 202 201 197 195 194 190 184 181 181 180 177 172 169 169 171 169 163 157 153 150 149 148 146 144 142 138 132 127 123
185 183 185 188 188 190 192 195 200 204 204 200 201 204 201 195 195 192 188 185 183 181 180 178 174 171 171 173 170 163 158 154 151 152 152 149 146 145 141 137 132 128
186 186 187 189 189 190 192 196 202 202 201 202 203 204 198 193 193 191 187 185 182 181 180 177 176 175 175 174 169 164 161 157 154 156 155 151 149 147 144 140 136 134
191 188 187 190 189 190 194 199 203 202 200 203 205 203 196 191 192 191 188 185 182 181 180 178 178 179 176 172 168 167 164 159 157 158 156 153 152 151 148 145 143 139
193 189 190 192 190 191 197 201 203 202 200 203 205 200 193 191 192 190 187 186 181 179 181 181 181 179 175 171 171 171 165 160 160 160 160 160 159 157 153 150 148 144
192 189 192 194 191 193 199 200 199 200 201 204 203 195 191 192 192 188 185 184 180 180 184 185 182 178 175 175 176 173 166 164 166 166 166 164 162 162 159 157 155 149
192 191 192 193 192 196 200 198 197 200 203 205 199 191 192 194 190 185 184 181 178 181 185 186 183 178 177 179 178 175 171 172 172 170 168 166 165 167 166 164 161 155
192 190 192 193 193 197 199 196 196 201 202 202 195 190 193 192 187 186 184 178 179 183 186 188 184 179 181 182 179 177 177 177 176 172 171 171 169 171 169 165 165 161
191 190 192 194 194 196 196 195 198 202 199 197 193 191 192 188 185 188 183 178 183 186 188 191 185 180 184 184 180 182 181 178 177 175 175 174 171 171 169 169 172 167
192 193 193 194 195 194 194 196 201 201 196 194 192 192 192 186 185 188 183 181 187 187 190 193 187 185 190 186 181 183 182 178 178 177 175 174 171 170 170 173 177 170
193 194 192 194 194 193 193 195 197 195 193 196 196 195 195 191 188 188 184 184 188 189 193 194 189 192 197 191 185 182 179 179 180 177 174 176 175 173 173 175 178 174
193 192 193 195 194 194 196 197 198 196 196 201 203 199 196 193 190 189 187 186 187 191 196 196 195 201 201 196 192 187 180 178 181 179 178 180 179 176 175 178 180 179
195 194 195 194 193 197 201 202 203 204 204 205 204 198 194 192 189 188 189 189 186 191 198 201 203 205 202 198 197 195 185 175 177 186 184 182 182 178 177 183 185 189
197 197 193 190 194 202 207 206 206 208 209 208 204 199 196 195 193 190 191 193 192 193 199 204 208 207 203 198 198 200 190 173 171 191 190 185 188 184 182 186 186 190
199 200 197 196 201 208 211 208 207 211 212 209 207 203 199 198 198 196 196 197 195 195 199 206 211 208 203 201 199 199 191 175 170 189 192 190 197 192 190 192 187 182
201 203 203 205 209 211 209 206 206 210 213 208 205 204 202 202 203 202 201 199 197 197 198 207 214 210 203 205 203 197 191 181 175 188 193 194 202 199 195 198 195 185
203 208 209 210 211 209 207 207 207 210 214 212 209 207 205 205 206 204 204 204 202 198 195 205 217 213 205 207 206 198 193 187 178 190 198 196 205 205 197 199 201 189
207 215 214 211 208 205 204 209 212 214 219 223 223 220 215 212 210 208 206 208 207 203 199 206 218 216 207 208 209 202 198 190 179 193 203 198 207 207 196 204 212 198
211 217 216 211 207 205 205 211 215 216 219 224 226 224 219 215 212 209 208 209 210 210 209 210 219 219 212 210 211 206 200 190 179 198 209 200 206 210 197 206 222 212
215 218 217 214 210 207 209 214 217 216 216 218 218 217 215 213 211 210 210 212 213 217 218 214 219 224 218 214 213 209 201 191 178 192 216 206 204 210 202 207 223 220
Height
1521 1522 1524 1526 1528 1529 1530 1532 1533 1534 1536 1537 1538 1539 1539 1540 1541 1542 1543 1544 1545 1545 1546 1546 1547 1547 1548 1548 1549 1549 1550 1550 1550 1550 1551 1551 1551 1550 1550 1550 1550 1550
1519 1521 1523 1525 1526 1528 1530 1531 1533 1534 1535 1537 1539 1538 1537 1539 1540 1541 1542 1543 1544 1545 1545 1546 1546 1547 1547 1548 1549 1549 1550 1550 1550 1550 1550 1550 1550 1550 1550 1550 1550 1550
1518 1519 1522 1524 1525 1527 1529 1530 1532 1533 1534 1536 1537 1536 1537 1539 1539 1540 1541 1542 1543 1544 1544 1545 1546 1546 1547 1548 1548 1549 1549 1550 1550 1550 1550 1550 1550 1550 1550 1550 1550 1550
1516 1518 1520 1522 1524 1526 1527 1529 1531 1532 1534 1534 1535 1535 1536 1538 1539 1539 1540 1541 1542 1543 1543 1544 1545 1546 1547 1547 1548 1549 1549 1549 1550 1550 1550 1550 1550 1550 1550 1550 1550 1550
1515 1517 1519 1521 1522 1524 1526 1528 1529 1531 1532 1533 1534 1534 1536 1537 1538 1539 1540 1540 1541 1542 1543 1544 1544 1545 1546 1547 1548 1549 1549 1549 1549 1549 1550 1550 1550 1550 1550 1550 1550 1550
1514 1516 1518 1519 1521 1523 1525 1527 1528 1530 1531 1532 1533 1534 1535 1536 1537 1538 1539 1539 1540 1541 1542 1543 1544 1545 1546 1547 1548 1548 1548 1549 1549 1549 1550 1550 1550 1550 1549 1550 1550 1550
1512 1514 1516 1518 1520 1522 1524 1525 1527 1528 1530 1531 1532 1533 1534 1535 1536 1537 1538 1539 1539 1541 1542 1543 1543 1544 1545 1546 1547 1548 1548 1549 1549 1549 1550 1549 1550 1549 1549 1550 1550 1550
1511 1513 1515 1517 1519 1521 1523 1524 1526 1527 1528 1529 1531 1532 1533 1534 1535 1536 1537 1538 1539 1540 1541 1542 1543 1544 1545 1546 1547 1547 1548 1548 1549 1549 1549 1549 1549 1549 1549 1550 1550 1550
1509 1511 1513 1515 1518 1520 1521 1523 1525 1526 1527 1528 1530 1531 1532 1533 1534 1535 1536 1537 1538 1539 1540 1541 1542 1543 1545 1545 1546 1547 1547 1548 1548 1549 1549 1549 1549 1549 1549 1550 1550 1550
1507 1509 1511 1514 1516 1518 1520 1522 1524 1525 1526 1527 1529 1530 1531 1532 1533 1534 1536 1537 1537 1539 1539 1540 1542 1543 1544 1545 1545 1546 1547 1548 1548 1549 1549 1549 1549 1549 1549 1550 1550 1550
1505 1507 1510 1512 1514 1517 1519 1521 1523 1524 1525 1526 1527 1529 1530 1531 1533 1534 1535 1536 1537 1538 1539 1540 1541 1542 1543 1544 1545 1546 1547 1547 1548 1548 1549 1549 1549 1549 1549 1550 1550 1550
1503 1505 1508 1511 1513 1515 1517 1520 1521 1523 1524 1525 1526 1528 1529 1530 1532 1533 1534 1535 1536 1537 1538 1539 1540 1542 1543 1543 1544 1545 1546 1547 1547 1548 1548 1549 1549 1549 1549 1549 1549 1549
1501 1504 1507 1509 1512 1514 1516 1518 1520 1522 1523 1524 1526 1527 1528 1530 1531 1532 1533 1535 1536 1537 1538 1539 1540 1541 1542 1543 1544 1544 1545 1546 1546 1547 1548 1548 1548 1549 1549 1549 1549 1549
1499 1502 1505 1508 1510 1513 1515 1517 1519 1521 1522 1524 1525 1526 1528 1529 1531 1532 1533 1534 1536 1536 1537 1538 1539 1540 1541 1542 1543 1543 1544 1545 1546 1546 1547 1547 1548 1548 1548 1548 1548 1548
1498 1501 1504 1506 1509 1511 1514 1516 1518 1520 1522 1523 1524 1526 1527 1529 1530 1531 1532 1534 1535 1535 1536 1537 1538 1539 1540 1541 1542 1542 1543 1544 1545 1546 1546 1547 1547 1548 1548 1548 1548 1548
1496 1499 1502 1505 1508 1510 1513 1515 1517 1519 1521 1523 1524 1525 1526 1527 1529 1530 1531 1533 1534 1534 1535 1535 1537 1538 1539 1540 1540 1541 1542 1543 1544 1545 1546 1546 1547 1547 1548 1547 1547 1547
1494 1497 1500 1503 1506 1509 1511 1513 1515 1518 1520 1521 1522 1523 1524 1525 1526 1528 1530 1531 1532 1533 1533 1534 1536 1536 1537 1538 1539 1540 1541 1543 1544 1545 1546 1546 1547 1547 1547 1547 1546 1547
1493 1496 1499 1502 1504 1506 1508 1510 1512 1514 1515 1517 1519 1520 1521 1522 1524 1526 1527 1529 1531 1531 1532 1533 1534 1534 1535 1537 1537 1538 1540 1542 1543 1545 1545 1546 1546 1546 1547 1546 1546 1546
1491 1494 1497 1500 1502 1504 1506 1508 1510 1511 1512 1514 1516 1518 1519 1521 1523 1525 1526 1528 1529 1530 1531 1531 1532 1532 1534 1536 1537 1537 1538 1540 1543 1544 1545 1546 1546 1546 1547 1546 1546 1546
1490 1493 1495 1497 1499 1502 1504 1506 1509 1510 1512 1513 1514 1515 1517 1518 1520 1523 1524 1526 1527 1528 1529 1530 1530 1531 1533 1534 1535 1537 1538 1539 1542 1544 1544 1545 1545 1545 1546 1545 1545 1546
1487 1490 1492 1494 1497 1500 1502 1505 1507 1509 1510 1511 1512 1514 1516 1517 1518 1520 1522 1524 1525 1527 1528 1528 1528 1530 1531 1533 1534 1536 1537 1538 1540 1542 1543 1544 1544 1544 1544 1544 1544 1545
1485 1488 1490 1493 1496 1498 1500 1503 1505 1506 1508 1509 1510 1512 1515 1516 1517 1518 1519 1522 1523 1525 1527 1527 1527 1528 1530 1531 1533 1534 1536 1537 1539 1541 1542 1543 1543 1543 1543 1543 1543 1544
1483 1486 1489 1492 1494 1496 1498 1500 1502 1504 1505 1506 1508 1509 1512 1514 1516 1516 1518 1520 1522 1524 1526 1526 1526 1527 1529 1530 1531 1533 1534 1536 1538 1540 1541 1541 1541 1541 1542 1542 1542 1543
1482 1485 1487 1490 1492 1494 1496 1498 1499 1501 1502 1503 1504 1506 1508 1511 1513 1515 1517 1519 1521 1523 1525 1526 1525 1526 1528 1529 1530 1532 1533 1534 1537 1539 1540 1540 1540 1540 1541 1542 1541 1541
1480 1483 1485 1488 1490 1492 1494 1495 1496 1498 1500 1500 1501 1503 1505 1507 1510 1512 1515 1517 1519 1522 1523 1524 1525 1525 1527 1527 1528 1530 1532 1533 1536 1538 1539 1539 1539 1539 1540 1541 1540 1540
1478 1480 1483 1485 1488 1489 1491 1493 1494 1495 1497 1498 1499 1501 1502 1503 1505 1508 1511 1514 1518 1520 1522 1523 1524 1524 1525 1526 1527 1529 1531 1532 1534 1537 1539 1539 1539 1539 1539 1539 1539 1539